Regional Weather Roundup
Issued by NWS Burlington, VT

Home | Current Version | Previous Version | Text Only | Print | Product List | Glossary On
Versions: 1 2 3 4 5 6 7 8 9 10 11 12 13 14 15 16 17 18 19 20 21 22 23 24 25 26 27 28 29 30 31 32 33 34 35 36 37 38 39 40 41 42 43 44 45 46 47 48 49 50
380
ASUS41 KBTV 230510
RWRBTV
VERMONT REGIONAL WEATHER ROUNDUP
NATIONAL WEATHER SERVICE BURLINGTON VT
1200 AM EST THU FEB 23 2017

NOTE: "FAIR" INDICATES FEW OR NO CLOUDS BELOW 12,000 FEET WITH NO
SIGNIFICANT WEATHER AND/OR OBSTRUCTIONS TO VISIBILITY.

* THESE REPORTS ARE NOT UNDER NWS QUALITY CONTROL AND/OR DO NOT
  REPORT WEATHER SUCH AS PRECIPITATION AND FOG.

VTZ001>019-230600-
_____VERMONT_____


CITY           SKY/WX    TMP DP  RH WIND       PRES   REMARKS
BURLINGTON     CLOUDY    41  34  76 CALM      29.80F
MONTPELIER     MOCLDY    35  32  88 CALM      29.86F
MORRISVILLE    PTCLDY    29  28  96 CALM      29.83F
ST. JOHNSBURY*   N/A     30  28  92 MISG      29.84F
LYNDONVILLE*   CLOUDY    33  30  90 CALM      29.85F
MIDDLEBURY*    CLOUDY    44  27  51 S5        29.83S
RUTLAND*       CLOUDY    38  34  85 SE9       29.85F WCI  31
SPRINGFIELD    CLOUDY    30  28  92 CALM      29.87S
HIGHGATE*      CLOUDY    37  32  81 S5        29.79F
NEWPORT*       FAIR      35  31  84 CALM      29.82S
BENNINGTON     CLOUDY    35  31  85 CALM      29.85S
SUTTON*          N/A     37 N/A N/A MISG        N/A

_____LAKE CHAMPLAIN_____


CITY           SKY/WX    TMP DP  RH WIND       PRES   REMARKS

$$

NYZ007-026>031-035-052-083-087-230600-
_____NORTHERN NEW YORK_____


CITY           SKY/WX    TMP DP  RH WIND       PRES   REMARKS
PLATTSBURGH    CLOUDY    37  31  78 CALM      29.80S
SARANAC LAKE   CLOUDY    39  35  86 SW7       29.78F
MASSENA        CLOUDY    38  34  85 CALM      29.78F
OGDENSBURG*    CLOUDY    41  36  83 CALM      29.76S
POTSDAM*       CLOUDY    46  43  87 S5        29.76F
WATERTOWN      CLOUDY    53  42  66 VRB7      29.76F
FT DRUM        MOCLDY    47  37  68 SE9       29.76S
ALBANY         PTCLDY    46  35  65 S5        29.85F
GLENS FALLS    PTCLDY    36  30  79 CALM      29.84F

$$
NHZ002-005-011-230600-
_____NEW HAMPSHIRE_____


CITY           SKY/WX    TMP DP  RH WIND       PRES   REMARKS
LEBANON        CLOUDY    34  31  88 CALM      29.85F
KEENE          PTCLDY    31  29  92 CALM      29.87F
MT WASHINGTON  PTCLDY    32  27  80 W39         N/A  WCI  16
PLYMOUTH       FAIR      28  27  98 CALM      29.88S
WHITEFIELD     CLEAR     27  22  81 CALM      29.84F

$$

_____REGIONAL QUEBEC LOCATIONS_____


CITY           SKY/WX    TMP DP  RH WIND       PRES   REMARKS
MONTREAL       CLOUDY    37  34  87 NE6       29.78F
QUEBEC CITY    MOCLDY    32  28  86 NE3       29.82F
SHERBROOKE     CLOUDY    30  28  93 E2        29.80F

_____REGIONAL ONTARIO LOCATIONS_____


CITY           SKY/WX    TMP DP  RH WIND       PRES   REMARKS
OTTAWA         CLOUDY    37  34  87 E7        29.75F

______KEY______
VSB  - VISIBILITY IN MILES
WCI  - WIND CHILL INDEX
HX   - HEAT INDEX
$$
NNNN




USA.gov is the U.S. government's official web portal to all federal, state and local government web resources and services.